Location: Glen Avon
(34.0117°N, 117.4848°W)
Time: 19:40:41
(UTC+00:00)

PSLV R/B - Pass Details

Date: 01 August 2021
Orbit: 593 x 629 km, 98.0° (Epoch: 20 September)

Event Time Altitude Azimuth Distance (km) Brightness Sun altitude
Rises 12:13:04 0° 7° (N) 2,873 7.6 -9.9°
Reaches altitude 10° 12:15:17 10° 4° (N) 1,959 6.6 -9.5°
Maximum altitude 12:19:28 60° 285° (WNW) 688 3.6 -8.7°
Drops below altitude 10° 12:23:35 10° 205° (SSW) 1,927 5.6 -8.0°
Enters shadow 12:25:08 - 202° (SSW) 2,565 6.3 -7.7°
